User: anonymous   Login
Location: Vancouver
(49.2500°N, 123.1330°W)
Time: 07:39:45
(UTC-07:00)
Language:

Cosmos 1408 Rocket - Orbit

View from above orbital plane
View from above orbital plane
View from above satellite
View from above satellite

Ground track
Ground track

The orbit data is extracted from the following two-line orbital elements,

1 13553U 82092B   16180.18128411  .00000075  00000-0  59854-5 0  9998
2 13553  82.5676 203.8838 0022652 131.8142 294.1190 14.84061912824536
Epoch (UTC): 28 June 2016 04:21:02
Eccentricity: 0.0022652
inclination: 82.5676°
perigee height: 600 km
apogee height: 632 km
right ascension of ascending node: 203.8838°
argument of perigee: 131.8142°
revolutions per day: 14.84061912
mean anomaly at epoch: 294.1190°
orbit number at epoch: 82453

The dashed part of the orbit path shows where the satellite is in the earth's shadow,  

DLR